This demonstration page uses our WeatherBlox Daily Observations layout. Learn more.

Left ArrowRight Arrow

44.8408, -93.29828

Hourly Observations for September 21, 2022

Temp ( °F °C ) Dew Point ( °F °C ) Humidity (%) Winds ( mph kmh ) Pressure ( in mb ) Visibility ( mi km ) Precip ( " mm )
12:53 am 00:53 Mostly Clear 70 21.1 54 12.2 57 57 NNW 15 24 29.87 1011 10 16 0.00 0.00
4:53 am 04:53 Mostly Clear 60 15.6 45 7.2 57 57 NNW 13 20 29.96 1015 10 16 0.00 0.00
5:53 am 05:53 Partly Cloudy 59 15 44 6.7 58 58 NW 9 15 29.98 1015 10 16 0.00 0.00
6:53 am 06:53 Partly Cloudy 58 14.4 44 6.7 60 60 NW 13 20 30.00 1016 10 16 0.00 0.00
7:53 am 07:53 Mostly Cloudy 59 15 42 5.6 53 53 NW 20 31 30.03 1017 10 16 0.00 0.00
8:53 am 08:53 Mostly Cloudy 60 15.6 42 5.6 51 51 NNW 16 26 30.04 1017 10 16 0.00 0.00
9:53 am 09:53 Mostly Cloudy 60 15.6 42 5.6 51 51 WNW 15 24 30.05 1018 10 16 0.00 0.00
10:53 am 10:53 Partly Cloudy 63 17.2 42 5.6 46 46 WNW 16 26 30.04 1017 10 16 0.00 0.00
11:53 am 11:53 Partly Cloudy 64 17.8 42 5.6 45 45 NNW 18 30 30.03 1017 10 16 0.00 0.00
12:53 pm 12:53 Partly Cloudy 67 19.4 43 6.1 42 42 WNW 15 24 30.02 1017 10 16 0.00 0.00
1:53 pm 13:53 Mostly Cloudy 68 20 44 6.7 42 42 WNW 22 35 30.03 1017 10 16 0.00 0.00
2:53 pm 14:53 Mostly Cloudy 66 18.9 45 7.2 47 47 NNW 24 39 30.03 1017 10 16 0.00 0.00
3:53 pm 15:53 Mostly Cloudy 66 18.9 44 6.7 45 45 WNW 20 31 30.04 1017 10 16 0.00 0.00
4:53 pm 16:53 Mostly Cloudy 64 17.8 43 6.1 46 46 NW 20 31 30.06 1018 10 16 0.00 0.00
5:53 pm 17:53 Mostly Cloudy 64 17.8 42 5.6 45 45 NW 17 28 30.07 1018 10 16 0.00 0.00
6:53 pm 18:53 Cloudy 63 17.2 43 6.1 48 48 NW 15 24 30.09 1019 10 16 0.00 0.00
7:53 pm 19:53 Mostly Cloudy with Light Rain 58 14.4 48 8.9 70 70 NNW 17 28 30.12 1020 10 16 0.01 0.13
8:53 pm 20:53 Mostly Cloudy 58 14.4 47 8.3 67 67 NNW 13 20 30.14 1021 10 16 0.01 0.13
9:53 pm 21:53 Partly Cloudy 57 13.9 46 7.8 67 67 NNW 12 19 30.17 1022 10 16 0.00 0.00
10:53 pm 22:53 Clear 55 12.8 46 7.8 72 72 NW 10 17 30.18 1022 10 16 0.00 0.00
11:53 pm 23:53 Clear 54 12.2 46 7.8 74 74 NNW 9 15 30.19 1022 10 16 0.00 0.00

Powered by AerisWeather